FW7384 Weather Reports


time (UTC)temp
C
wind
direction
speed
KPH
gust
KPH
rain 1hr
cm
rain 24hr
cm
rain mn
cm
humidity
%
barometer
mb
20260502181503 18 184 6.4 16.1 0.00 0.00 0.00 40 1011.8
20260502181213 18 184 8.0 16.1 0.00 0.00 0.00 40 1011.9
20260502180503 18 186 8.0 12.9 0.00 0.00 0.00 39 1011.8
20260502170503 19 198 9.7 20.9 0.00 0.00 0.00 38 1012.0
20260502164213 20 191 8.0 17.7 0.00 0.00 0.00 36 1012.2
20260502163503 20 190 9.7 17.7 0.00 0.00 0.00 35 1012.1
20260502163003 20 190 9.7 17.7 0.00 0.00 0.00 35 1012.1
20260502162503 20 189 8.0 19.3 0.00 0.00 0.00 34 1012.2
20260502162003 20 195 8.0 19.3 0.00 0.00 0.00 33 1012.2
20260502161503 20 199 9.7 17.7 0.00 0.00 0.00 32 1012.5
20260502161003 20 196 8.0 16.1 0.00 0.00 0.00 31 1012.5
20260502160503 20 201 6.4 14.5 0.00 0.00 0.00 31 1012.5
20260502152003 21 201 9.7 19.3 0.00 0.00 0.00 30 1012.6
20260502151503 21 196 8.0 19.3 0.00 0.00 0.00 31 1012.9
20260502151003 21 194 8.0 16.1 0.00 0.00 0.00 32 1012.9
20260502150503 21 201 9.7 17.7 0.00 0.00 0.00 33 1013.0
20260502130503 21 201 12.9 27.4 0.00 0.00 0.00 31 1014.0
20260502130213 21 204 11.3 27.4 0.00 0.00 0.00 31 1014.1
20260502123714 21 200 9.7 24.1 0.00 0.00 0.00 31 1014.2
20260502123003 21 198 11.3 24.1 0.00 0.00 0.00 32 1014.5
20260502122503 21 196 11.3 20.9 0.00 0.00 0.00 33 1014.5
20260502122003 21 200 12.9 24.1 0.00 0.00 0.00 34 1014.6
20260502121503 21 206 11.3 24.1 0.00 0.00 0.00 33 1014.8
20260502121003 21 209 11.3 27.4 0.00 0.00 0.00 33 1014.7
20260502120503 21 207 11.3 27.4 0.00 0.00 0.00 34 1014.8
20260502120213 21 199 12.9 27.4 0.00 0.00 0.00 34 1014.9
20260502115503 21 181 11.3 25.7 0.00 0.00 0.00 34 1014.9
20260502115003 21 192 9.7 25.7 0.00 0.00 0.00 34 1015.0
20260502114503 21 201 9.7 25.7 0.00 0.00 0.00 35 1015.2
20260502114003 21 199 11.3 25.7 0.00 0.00 0.00 35 1015.1
20260502113503 21 199 12.9 25.7 0.00 0.00 0.00 35 1015.0
20260502113004 20 203 11.3 24.1 0.00 0.00 0.00 35 1015.2
20260502112503 20 200 11.3 25.7 0.00 0.00 0.00 35 1015.3
20260502112003 20 188 11.3 25.7 0.00 0.00 0.00 35 1015.3
20260502111504 20 191 11.3 24.1 0.00 0.00 0.00 36 1015.6
20260502111003 20 194 11.3 22.5 0.00 0.00 0.00 35 1015.6
20260502110503 20 189 11.3 25.7 0.00 0.00 0.00 37 1015.3
20260502110003 20 196 11.3 25.7 0.00 0.00 0.00 36 1015.6
20260502105503 20 199 11.3 24.1 0.00 0.00 0.00 37 1015.8
20260502105003 20 198 14.5 24.1 0.00 0.00 0.00 37 1015.9
20260502104503 20 197 14.5 24.1 0.00 0.00 0.00 37 1015.8
20260502104003 20 199 12.9 25.7 0.00 0.00 0.00 37 1015.7
20260502103503 20 204 11.3 25.7 0.00 0.00 0.00 37 1015.8
20260502103003 20 204 11.3 24.1 0.00 0.00 0.00 37 1015.9
20260502102713 20 202 11.3 24.1 0.00 0.00 0.00 37 1016.0
20260502102003 20 199 12.9 29.0 0.00 0.00 0.00 38 1016.0
20260502101713 20 196 12.9 29.0 0.00 0.00 0.00 37 1016.1
20260502101003 20 191 12.9 24.1 0.00 0.00 0.00 38 1016.0
20260502100503 20 198 12.9 24.1 0.00 0.00 0.00 38 1016.1
20260502091503 18 193 11.3 24.1 0.00 0.00 0.00 40 1016.5
20260502091003 18 195 11.3 24.1 0.00 0.00 0.00 41 1016.5
20260502090713 18 197 9.7 24.1 0.00 0.00 0.00 41 1016.5
20260502090214 18 197 9.7 24.1 0.00 0.00 0.00 42 1016.8
20260502071503 15 207 4.8 8.0 0.00 0.00 0.00 54 1017.5
20260502071003 14 209 4.8 9.7 0.00 0.00 0.00 56 1017.6
20260502070503 14 214 4.8 9.7 0.00 0.00 0.00 56 1017.7
20260502070003 13 211 4.8 9.7 0.00 0.00 0.00 57 1017.6
20260502065503 13 210 4.8 9.7 0.00 0.00 0.00 57 1017.9
20260502065003 13 206 4.8 9.7 0.00 0.00 0.00 58 1017.9
20260502064503 13 185 4.8 8.0 0.00 0.00 0.00 59 1017.7
20260502064003 13 174 4.8 11.3 0.00 0.00 0.00 59 1018.0
20260502063503 13 173 4.8 11.3 0.00 0.00 0.00 60 1017.9
20260502063003 12 170 4.8 11.3 0.00 0.00 0.00 60 1018.0
20260502062714 12 184 4.8 8.0 0.00 0.00 0.00 61 1018.2
20260502062003 12 167 4.8 14.5 0.00 0.00 0.00 64 1018.1
20260502061714 11 147 3.2 14.5 0.00 0.00 0.00 65 1018.1
20260502061003 11 134 3.2 9.7 0.00 0.00 0.00 66 1018.1
20260502060503 10 144 3.2 9.7 0.00 0.00 0.00 68 1018.2
20260502060003 10 136 3.2 9.7 0.00 0.00 0.00 68 1018.2
20260502055503 10 100 3.2 6.4 0.00 0.00 0.00 68 1018.3
20260502055213 10 84 3.2 6.4 0.00 0.00 0.00 70 1018.3
20260502054503 9 111 3.2 8.0 0.00 0.00 0.00 73 1018.5
20260502054003 9 107 3.2 8.0 0.00 0.00 0.00 74 1018.5
20260502053503 8 104 3.2 6.4 0.00 0.00 0.00 76 1018.5
20260502053003 7 102 3.2 4.8 0.00 0.00 0.00 79 1018.5
20260502052503 7 96 1.6 4.8 0.00 0.00 0.00 82 1018.7
20260502052003 6 89 1.6 4.8 0.00 0.00 0.00 83 1018.7
20260502051503 5 38 3.2 4.8 0.00 0.00 0.00 84 1018.6
20260502051003 5 38 3.2 4.8 0.00 0.00 0.00 85 1018.8
20260502050503 5 39 1.6 4.8 0.00 0.00 0.00 85 1018.8
20260502050003 4 42 3.2 4.8 0.00 0.00 0.00 87 1018.8
20260502045503 3 52 1.6 4.8 0.00 0.00 0.00 86 1018.8
20260502045003 3 42 1.6 4.8 0.00 0.00 0.00 87 1018.9
20260502044504 3 32 3.2 4.8 0.00 0.00 0.00 89 1019.0
20260502044003 2 38 3.2 4.8 0.00 0.00 0.00 89 1018.9
20260502043503 2 39 3.2 4.8 0.00 0.00 0.00 89 1019.0
20260502043003 2 30 3.2 4.8 0.00 0.00 0.00 90 1018.9
20260502042503 2 35 1.6 4.8 0.00 0.00 0.00 91 1019.1
20260502042003 1 33 3.2 3.2 0.00 0.00 0.00 91 1019.1
20260502041503 1 34 1.6 3.2 0.00 0.00 0.00 91 1019.2
20260502041214 1 44 1.6 3.2 0.00 0.00 0.00 91 1019.3
20260502040503 1 60 1.6 4.8 0.00 0.00 0.00 92 1019.3
20260502040003 1 44 3.2 6.4 0.00 0.00 0.00 91 1019.3
20260502035503 1 29 3.2 6.4 0.00 0.00 0.00 90 1019.4
20260502035003 1 30 3.2 4.8 0.00 0.00 0.00 90 1019.5
20260502034503 2 31 1.6 4.8 0.00 0.00 0.00 89 1019.4
20260502034004 1 37 1.6 4.8 0.00 0.00 0.00 92 1019.4
20260502033713 1 62 1.6 6.4 0.00 0.00 0.00 94 1019.5
20260502033003 2 35 3.2 6.4 0.00 0.00 0.00 90 1019.5
20260502032713 2 1 1.6 6.4 0.00 0.00 0.00 93 1019.6
20260502032003 1 17 0.0 3.2 0.00 0.00 0.00 93 1019.5
20260502031713 1 48 0.0 3.2 0.00 0.00 0.00 94 1019.7
20260502031214 1 44 1.6 4.8 0.00 0.00 0.00 92 1019.7
20260502030503 1 43 1.6 4.8 0.00 0.00 0.00 91 1019.9
20260502030003 1 42 1.6 4.8 0.00 0.00 0.00 91 1019.8
20260502025503 1 34 1.6 6.4 0.00 0.00 0.00 91 1020.2
20260502025003 1 31 3.2 6.4 0.00 0.00 0.00 90 1020.1
20260502024503 2 29 1.6 4.8 0.00 0.00 0.00 91 1020.2
20260502024214 2 33 1.6 4.8 0.00 0.00 0.00 92 1020.0
20260502023712 1 41 1.6 3.2 0.00 0.00 0.00 94 1020.2
20260502023213 1 36 1.6 3.2 0.00 0.00 0.00 93 1020.2
20260502022503 1 39 1.6 3.2 0.00 0.00 0.00 92 1020.2
20260502022003 1 45 1.6 3.2 0.00 0.00 0.00 92 1020.4
20260502021503 1 48 1.6 3.2 0.00 0.00 0.00 93 1020.6
20260502021003 1 45 1.6 3.2 0.00 0.00 0.00 91 1020.5
20260502020503 1 44 3.2 6.4 0.00 0.00 0.00 91 1020.7
20260502020003 2 43 3.2 6.4 0.00 0.00 0.00 90 1020.8
20260502015503 2 41 3.2 4.8 0.00 0.00 0.00 90 1020.7
20260502015003 2 32 1.6 4.8 0.00 0.00 0.00 91 1020.7
20260502014714 2 32 1.6 4.8 0.00 0.00 0.00 92 1020.7
20260502014003 2 37 1.6 4.8 0.00 0.00 0.00 93 1021.0
20260502013503 2 33 1.6 4.8 0.00 0.00 0.00 92 1020.9
20260502013003 2 38 1.6 3.2 0.00 0.00 0.00 91 1020.9
20260502012503 2 44 1.6 3.2 0.00 0.00 0.00 91 1020.9
20260502012004 2 36 3.2 4.8 0.00 0.00 0.00 90 1021.0
20260502011503 2 35 3.2 4.8 0.00 0.00 0.00 90 1021.1
20260502011003 2 31 3.2 4.8 0.00 0.00 0.00 89 1021.4
20260502010503 2 33 1.6 4.8 0.00 0.00 0.00 89 1021.2
20260502010213 2 41 1.6 3.2 0.00 0.00 0.00 90 1021.2
20260502005714 3 47 1.6 3.2 0.00 0.00 0.00 89 1021.2
20260502005213 2 47 0.0 3.2 0.00 0.00 0.00 92 1021.2
20260502004503 2 51 1.6 4.8 0.00 0.00 0.00 92 1021.3
20260502004213 2 46 1.6 4.8 0.00 0.00 0.00 91 1021.3
20260502003503 2 45 1.6 4.8 0.00 0.00 0.00 91 1021.5
20260502003003 2 45 1.6 3.2 0.00 0.00 0.00 90 1021.7
20260502002503 2 37 1.6 3.2 0.00 0.00 0.00 90 1021.7
20260502002003 2 34 1.6 3.2 0.00 0.00 0.00 91 1021.6
20260502001503 2 41 1.6 3.2 0.00 0.00 0.00 91 1021.5
20260502001004 2 46 0.0 3.2 0.00 0.00 0.00 90 1021.8
20260502000503 2 52 1.6 4.8 0.00 0.00 0.00 89 1021.7
20260502000003 3 51 3.2 4.8 0.00 0.00 0.00 88 1021.8
20260501235503 3 40 1.6 4.8 0.00 0.00 0.00 89 1021.7
20260501235003 3 46 1.6 3.2 0.00 0.00 0.00 89 1021.7
20260501234503 3 57 1.6 4.8 0.00 0.00 0.00 89 1021.9
20260501234003 3 48 3.2 4.8 0.00 0.00 0.00 87 1022.0
20260501233503 3 34 3.2 4.8 0.00 0.00 0.00 87 1022.0
20260501233003 3 32 1.6 3.2 0.00 0.00 0.00 88 1022.0
20260501232503 3 38 1.6 4.8 0.00 0.00 0.00 87 1022.1
20260501232003 3 41 3.2 4.8 0.00 0.00 0.00 86 1022.3
20260501231503 4 44 1.6 4.8 0.00 0.00 0.00 86 1022.3
20260501231214 4 39 1.6 4.8 0.00 0.00 0.00 86 1022.2
20260501230503 4 50 1.6 3.2 0.00 0.00 0.00 86 1022.4
20260501230214 4 64 1.6 3.2 0.00 0.00 0.00 86 1022.3
20260501225713 4 56 0.0 3.2 0.00 0.00 0.00 86 1022.5
20260501225003 4 50 1.6 4.8 0.00 0.00 0.00 85 1022.5
20260501224503 4 47 3.2 4.8 0.00 0.00 0.00 84 1022.5
20260501224003 5 36 1.6 3.2 0.00 0.00 0.00 82 1022.4
20260501223503 5 31 1.6 3.2 0.00 0.00 0.00 83 1022.5
20260501223003 5 38 1.6 3.2 0.00 0.00 0.00 83 1022.5
20260501222503 5 45 1.6 3.2 0.00 0.00 0.00 83 1022.5
20260501222003 5 48 1.6 3.2 0.00 0.00 0.00 82 1022.4
20260501221503 5 42 1.6 3.2 0.00 0.00 0.00 82 1022.7
20260501221003 5 34 1.6 3.2 0.00 0.00 0.00 80 1022.7
20260501220503 6 35 1.6 3.2 0.00 0.00 0.00 79 1022.7
20260501220004 6 38 1.6 3.2 0.00 0.00 0.00 79 1022.7
20260501215503 6 37 1.6 3.2 0.00 0.00 0.00 80 1022.6
20260501215003 6 42 0.0 3.2 0.00 0.00 0.00 79 1022.8
20260501214503 6 43 1.6 3.2 0.00 0.00 0.00 77 1022.8
20260501214003 6 37 1.6 3.2 0.00 0.00 0.00 77 1022.9
20260501213503 6 33 0.0 3.2 0.00 0.00 0.00 77 1023.0
20260501213003 6 47 0.0 1.6 0.00 0.00 0.00 76 1022.8
20260501212503 6 54 0.0 1.6 0.00 0.00 0.00 76 1023.1
20260501212003 6 44 1.6 3.2 0.00 0.00 0.00 76 1023.1
20260501211503 7 33 1.6 4.8 0.00 0.00 0.00 74 1023.2
20260501211003 7 21 1.6 4.8 0.00 0.00 0.00 73 1023.1
20260501210503 7 9 0.0 3.2 0.00 0.00 0.00 72 1023.2
20260501210003 7 22 0.0 1.6 0.00 0.00 0.00 72 1023.1
20260501205503 7 11 0.0 1.6 0.00 0.00 0.00 71 1023.2
20260501205003 7 22 0.0 1.6 0.00 0.00 0.00 71 1023.2
20260501204503 8 47 0.0 3.2 0.00 0.00 0.00 70 1023.1
20260501204003 8 42 0.0 3.2 0.00 0.00 0.00 70 1023.4
20260501203503 8 52 0.0 3.2 0.00 0.00 0.00 69 1023.1
20260501203003 8 36 0.0 3.2 0.00 0.00 0.00 67 1023.3
20260501202503 8 20 0.0 3.2 0.00 0.00 0.00 67 1023.3
20260501202003 8 31 1.6 3.2 0.00 0.00 0.00 67 1023.3
20260501201503 9 36 1.6 3.2 0.00 0.00 0.00 66 1023.2
20260501201003 9 44 0.0 3.2 0.00 0.00 0.00 65 1023.3
20260501200503 10 42 0.0 3.2 0.00 0.00 0.00 64 1023.3
20260501200004 10 26 0.0 3.2 0.00 0.00 0.00 64 1023.4
20260501195503 10 17 0.0 3.2 0.00 0.00 0.00 63 1023.3
20260501195003 10 174 0.0 1.6 0.00 0.00 0.00 62 1023.5
20260501194503 10 156 0.0 3.2 0.00 0.00 0.00 60 1023.5
20260501194003 11 149 1.6 3.2 0.00 0.00 0.00 60 1023.4
20260501193503 11 141 0.0 3.2 0.00 0.00 0.00 58 1023.5
20260501193213 11 0 0.0 0.0 0.00 0.00 0.00 58 1023.5
20260501192503 11 0 0.0 0.0 0.00 0.00 0.00 56 1023.5
20260501192213 12 0 0.0 0.0 0.00 0.00 0.00 56 1023.6
20260501191714 12 147 0.0 1.6 0.00 0.00 0.00 55 1023.7
20260501191003 12 185 0.0 3.2 0.00 0.00 0.00 53 1023.6
20260501190503 13 209 0.0 3.2 0.00 0.00 0.00 51 1023.5
20260501190003 13 230 0.0 3.2 0.00 0.00 0.00 50 1023.6
20260501185503 13 214 0.0 3.2 0.00 0.00 0.00 49 1023.6
20260501185003 13 175 0.0 3.2 0.00 0.00 0.00 48 1023.5
20260501184504 14 194 0.0 3.2 0.00 0.00 0.00 47 1023.6
20260501184003 15 226 0.0 3.2 0.00 0.00 0.00 45 1023.5
20260501183503 15 213 0.0 3.2 0.00 0.00 0.00 44 1023.7
20260501183003 15 206 1.6 3.2 0.00 0.00 0.00 44 1023.5
20260501182713 15 202 1.6 3.2 0.00 0.00 0.00 43 1023.4
20260501182003 16 205 3.2 4.8 0.00 0.00 0.00 42 1023.5